| time (UTC) | temp F | wind direction | speed MPH | gust MPH | rain 1hr in | rain 24hr in | rain mn in | humidity % | barometer mb |
| 20260906234518 | 98 | 250 | 6.0 | 14.0 | 0.00 | 0.00 | 0.00 | 27 | 1010.8 |
| 20260906234022 | 98 | 289 | 6.0 | 14.0 | 0.00 | 0.00 | 0.00 | 27 | 1010.9 |
| 20260906233514 | 98 | 281 | 7.0 | 13.0 | 0.00 | 0.00 | 0.00 | 27 | 1010.9 |
| 20260906233010 | 98 | 276 | 6.0 | 13.0 | 0.00 | 0.00 | 0.00 | 27 | 1010.9 |
| 20260906232517 | 98 | 263 | 6.0 | 15.0 | 0.00 | 0.00 | 0.00 | 27 | 1010.9 |
| 20260906232009 | 98 | 270 | 10.0 | 15.0 | 0.00 | 0.00 | 0.00 | 27 | 1010.8 |
| 20260906231511 | 98 | 284 | 6.0 | 13.0 | 0.00 | 0.00 | 0.00 | 27 | 1010.8 |
| 20260906231014 | 98 | 251 | 6.0 | 12.0 | 0.00 | 0.00 | 0.00 | 27 | 1010.9 |
| 20260906230519 | 98 | 301 | 5.0 | 12.0 | 0.00 | 0.00 | 0.00 | 27 | 1010.9 |
| 20260906230035 | 98 | 282 | 7.0 | 13.0 | 0.00 | 0.00 | 0.00 | 27 | 1011.0 |
| 20260906225515 | 98 | 220 | 6.0 | 16.0 | 0.00 | 0.00 | 0.00 | 27 | 1010.9 |
| 20260906225020 | 98 | 282 | 4.0 | 16.0 | 0.00 | 0.00 | 0.00 | 27 | 1011.0 |
| 20260906224534 | 99 | 257 | 7.0 | 13.0 | 0.00 | 0.00 | 0.00 | 27 | 1011.0 |
| 20260906224015 | 99 | 262 | 7.0 | 14.0 | 0.00 | 0.00 | 0.00 | 27 | 1011.2 |
| 20260906223519 | 99 | 247 | 4.0 | 14.0 | 0.00 | 0.00 | 0.00 | 27 | 1011.1 |
| 20260906223013 | 98 | 258 | 8.0 | 14.0 | 0.00 | 0.00 | 0.00 | 28 | 1011.2 |
| 20260906222511 | 98 | 229 | 6.0 | 14.0 | 0.00 | 0.00 | 0.00 | 28 | 1011.2 |
| 20260906222012 | 98 | 253 | 8.0 | 14.0 | 0.00 | 0.00 | 0.00 | 28 | 1011.3 |
| 20260906221512 | 98 | 231 | 8.0 | 12.0 | 0.00 | 0.00 | 0.00 | 27 | 1011.3 |
| 20260906221017 | 98 | 244 | 6.0 | 13.0 | 0.00 | 0.00 | 0.00 | 27 | 1011.3 |
| 20260906220518 | 98 | 244 | 7.0 | 13.0 | 0.00 | 0.00 | 0.00 | 27 | 1011.4 |
| 20260906220030 | 99 | 257 | 5.0 | 12.0 | 0.00 | 0.00 | 0.00 | 27 | 1011.5 |
| 20260906215519 | 98 | 276 | 5.0 | 12.0 | 0.00 | 0.00 | 0.00 | 27 | 1011.5 |
| 20260906215019 | 98 | 230 | 6.0 | 12.0 | 0.00 | 0.00 | 0.00 | 28 | 1011.5 |
| 20260906214534 | 99 | 227 | 6.0 | 14.0 | 0.00 | 0.00 | 0.00 | 27 | 1011.7 |
| 20260906214019 | 98 | 230 | 5.0 | 14.0 | 0.00 | 0.00 | 0.00 | 28 | 1011.8 |
| 20260906213510 | 98 | 282 | 6.0 | 14.0 | 0.00 | 0.00 | 0.00 | 28 | 1011.8 |
| 20260906213031 | 98 | 243 | 5.0 | 14.0 | 0.00 | 0.00 | 0.00 | 28 | 1011.8 |
| 20260906212514 | 98 | 226 | 3.0 | 13.0 | 0.00 | 0.00 | 0.00 | 28 | 1011.9 |
| 20260906212010 | 98 | 252 | 5.0 | 12.0 | 0.00 | 0.00 | 0.00 | 28 | 1011.8 |
| 20260906211511 | 98 | 255 | 7.0 | 12.0 | 0.00 | 0.00 | 0.00 | 28 | 1011.9 |
| 20260906211016 | 98 | 243 | 5.0 | 13.0 | 0.00 | 0.00 | 0.00 | 28 | 1011.9 |
| 20260906210516 | 98 | 240 | 6.0 | 13.0 | 0.00 | 0.00 | 0.00 | 28 | 1011.9 |
| 20260906210036 | 98 | 314 | 5.0 | 11.0 | 0.00 | 0.00 | 0.00 | 29 | 1012.0 |
| 20260906205519 | 98 | 311 | 4.0 | 15.0 | 0.00 | 0.00 | 0.00 | 29 | 1012.1 |
| 20260906205020 | 97 | 221 | 5.0 | 15.0 | 0.00 | 0.00 | 0.00 | 30 | 1012.1 |
| 20260906204555 | 97 | 302 | 4.0 | 13.0 | 0.00 | 0.00 | 0.00 | 29 | 1012.1 |
| 20260906204014 | 97 | 284 | 4.0 | 11.0 | 0.00 | 0.00 | 0.00 | 30 | 1012.1 |
| 20260906203519 | 97 | 221 | 5.0 | 11.0 | 0.00 | 0.00 | 0.00 | 30 | 1012.2 |
| 20260906203033 | 97 | 225 | 5.0 | 14.0 | 0.00 | 0.00 | 0.00 | 30 | 1012.3 |
| 20260906202514 | 98 | 255 | 8.0 | 14.0 | 0.00 | 0.00 | 0.00 | 30 | 1012.4 |
| 20260906202009 | 96 | 262 | 6.0 | 15.0 | 0.00 | 0.00 | 0.00 | 31 | 1012.4 |
| 20260906201536 | 96 | 266 | 6.0 | 15.0 | 0.00 | 0.00 | 0.00 | 31 | 1012.5 |
| 20260906201015 | 96 | 265 | 8.0 | 15.0 | 0.00 | 0.00 | 0.00 | 31 | 1012.5 |
| 20260906200515 | 96 | 273 | 8.0 | 14.0 | 0.00 | 0.00 | 0.00 | 31 | 1012.5 |
| 20260906200035 | 98 | 270 | 5.0 | 13.0 | 0.00 | 0.00 | 0.00 | 30 | 1012.6 |
| 20260906195513 | 96 | 273 | 8.0 | 13.0 | 0.00 | 0.00 | 0.00 | 31 | 1012.7 |
| 20260906195011 | 97 | 286 | 7.0 | 14.0 | 0.00 | 0.00 | 0.00 | 31 | 1012.7 |
| 20260906194532 | 97 | 293 | 2.0 | 16.0 | 0.00 | 0.00 | 0.00 | 31 | 1012.9 |
| 20260906194019 | 96 | 258 | 5.0 | 16.0 | 0.00 | 0.00 | 0.00 | 32 | 1012.9 |
| 20260906193509 | 95 | 248 | 8.0 | 13.0 | 0.00 | 0.00 | 0.00 | 31 | 1013.0 |
| 20260906193032 | 96 | 285 | 6.0 | 12.0 | 0.00 | 0.00 | 0.00 | 31 | 1013.0 |
| 20260906192514 | 95 | 276 | 5.0 | 13.0 | 0.00 | 0.00 | 0.00 | 32 | 1013.0 |
| 20260906192007 | 95 | 247 | 8.0 | 13.0 | 0.00 | 0.00 | 0.00 | 31 | 1013.2 |
| 20260906191534 | 95 | 241 | 5.0 | 10.0 | 0.00 | 0.00 | 0.00 | 33 | 1013.3 |
| 20260906191018 | 94 | 257 | 3.0 | 10.0 | 0.00 | 0.00 | 0.00 | 33 | 1013.4 |
| 20260906190510 | 95 | 288 | 6.0 | 9.0 | 0.00 | 0.00 | 0.00 | 33 | 1013.4 |
| 20260906190033 | 94 | 259 | 5.0 | 9.0 | 0.00 | 0.00 | 0.00 | 33 | 1013.5 |
| 20260906185511 | 94 | 216 | 5.0 | 10.0 | 0.00 | 0.00 | 0.00 | 33 | 1013.5 |
| 20260906185019 | 95 | 236 | 2.0 | 11.0 | 0.00 | 0.00 | 0.00 | 34 | 1013.5 |
| 20260906184532 | 94 | 256 | 4.0 | 12.0 | 0.00 | 0.00 | 0.00 | 33 | 1013.5 |
| 20260906184018 | 94 | 257 | 4.0 | 12.0 | 0.00 | 0.00 | 0.00 | 34 | 1013.7 |
| 20260906183517 | 93 | 254 | 4.0 | 13.0 | 0.00 | 0.00 | 0.00 | 34 | 1013.8 |
| 20260906183030 | 94 | 255 | 5.0 | 13.0 | 0.00 | 0.00 | 0.00 | 33 | 1013.8 |
| 20260906182514 | 94 | 300 | 4.0 | 9.0 | 0.00 | 0.00 | 0.00 | 34 | 1013.9 |
| 20260906182008 | 94 | 277 | 4.0 | 9.0 | 0.00 | 0.00 | 0.00 | 33 | 1014.0 |
| 20260906181535 | 94 | 271 | 3.0 | 9.0 | 0.00 | 0.00 | 0.00 | 34 | 1014.0 |
| 20260906181012 | 92 | 275 | 5.0 | 9.0 | 0.00 | 0.00 | 0.00 | 35 | 1014.1 |
| 20260906180511 | 93 | 244 | 3.0 | 7.0 | 0.00 | 0.00 | 0.00 | 34 | 1014.3 |
| 20260906180054 | 92 | 272 | 3.0 | 7.0 | 0.00 | 0.00 | 0.00 | 35 | 1014.3 |
| 20260906175520 | 93 | 240 | 4.0 | 7.0 | 0.00 | 0.00 | 0.00 | 35 | 1014.4 |
| 20260906175008 | 92 | 307 | 2.0 | 7.0 | 0.00 | 0.00 | 0.00 | 36 | 1014.4 |
| 20260906174535 | 91 | 229 | 0.0 | 7.0 | 0.00 | 0.00 | 0.00 | 37 | 1014.4 |
| 20260906174017 | 90 | 239 | 2.0 | 8.0 | 0.00 | 0.00 | 0.00 | 37 | 1014.6 |
| 20260906173515 | 90 | 244 | 3.0 | 8.0 | 0.00 | 0.00 | 0.00 | 38 | 1014.6 |
| 20260906173030 | 91 | 283 | 2.0 | 8.0 | 0.00 | 0.00 | 0.00 | 38 | 1014.5 |
| 20260906172513 | 91 | 259 | 1.0 | 5.0 | 0.00 | 0.00 | 0.00 | 37 | 1014.5 |
| 20260906172011 | 91 | 196 | 1.0 | 5.0 | 0.00 | 0.00 | 0.00 | 38 | 1014.6 |
| 20260906171530 | 90 | 205 | 0.0 | 3.0 | 0.00 | 0.00 | 0.00 | 39 | 1014.6 |
| 20260906171019 | 89 | 162 | 0.0 | 3.0 | 0.00 | 0.00 | 0.00 | 41 | 1014.5 |
| 20260906170518 | 88 | 155 | 0.0 | 2.0 | 0.00 | 0.00 | 0.00 | 42 | 1014.5 |
| 20260906170034 | 88 | 155 | 0.0 | 2.0 | 0.00 | 0.00 | 0.00 | 42 | 1014.5 |
| 20260906165515 | 87 | 152 | 0.0 | 2.0 | 0.00 | 0.00 | 0.00 | 43 | 1014.5 |
| 20260906165016 | 87 | 107 | 0.0 | 2.0 | 0.00 | 0.00 | 0.00 | 43 | 1014.6 |
| 20260906164536 | 87 | 107 | 0.0 | 2.0 | 0.00 | 0.00 | 0.00 | 43 | 1014.7 |
| 20260906164015 | 87 | 107 | 0.0 | 2.0 | 0.00 | 0.00 | 0.00 | 43 | 1014.7 |
| 20260906163506 | 86 | 107 | 0.0 | 1.0 | 0.00 | 0.00 | 0.00 | 43 | 1014.7 |
| 20260906163039 | 86 | 103 | 0.0 | 1.0 | 0.00 | 0.00 | 0.00 | 44 | 1014.7 |
| 20260906162501 | 85 | 103 | 0.0 | 3.0 | 0.00 | 0.00 | 0.00 | 45 | 1014.7 |
| 20260906162008 | 85 | 103 | 0.0 | 3.0 | 0.00 | 0.00 | 0.00 | 45 | 1014.9 |
| 20260906161514 | 85 | 102 | 0.0 | 3.0 | 0.00 | 0.00 | 0.00 | 45 | 1014.9 |
| 20260906161002 | 85 | 100 | 0.0 | 2.0 | 0.00 | 0.00 | 0.00 | 45 | 1014.9 |
| 20260906160508 | 85 | 98 | 0.0 | 2.0 | 0.00 | 0.00 | 0.00 | 44 | 1014.7 |
| 20260906160009 | 85 | 98 | 0.0 | 2.0 | 0.00 | 0.00 | 0.00 | 44 | 1014.8 |
| 20260906155511 | 84 | 98 | 0.0 | 2.0 | 0.00 | 0.00 | 0.00 | 45 | 1014.9 |
| 20260906155009 | 84 | 96 | 0.0 | 1.0 | 0.00 | 0.00 | 0.00 | 46 | 1014.9 |
| 20260906154515 | 84 | 95 | 0.0 | 1.0 | 0.00 | 0.00 | 0.00 | 47 | 1014.9 |
| 20260906154004 | 83 | 96 | 0.0 | 3.0 | 0.00 | 0.00 | 0.00 | 47 | 1014.9 |
| 20260906153506 | 83 | 96 | 0.0 | 3.0 | 0.00 | 0.00 | 0.00 | 49 | 1014.9 |
| 20260906153008 | 83 | 98 | 0.0 | 3.0 | 0.00 | 0.00 | 0.00 | 49 | 1015.0 |
| 20260906152500 | 83 | 98 | 0.0 | 4.0 | 0.00 | 0.00 | 0.00 | 48 | 1015.0 |
| 20260906152008 | 82 | 99 | 0.0 | 5.0 | 0.00 | 0.00 | 0.00 | 49 | 1015.1 |
| 20260906151510 | 82 | 84 | 1.0 | 4.0 | 0.00 | 0.00 | 0.00 | 48 | 1015.1 |
| 20260906151006 | 82 | 77 | 0.0 | 3.0 | 0.00 | 0.00 | 0.00 | 50 | 1015.0 |
| 20260906150518 | 82 | 1 | 0.0 | 3.0 | 0.00 | 0.00 | 0.00 | 50 | 1015.0 |
| 20260906150036 | 82 | 360 | 0.0 | 3.0 | 0.00 | 0.00 | 0.00 | 49 | 1015.0 |
| 20260906145513 | 82 | 360 | 0.0 | 3.0 | 0.00 | 0.00 | 0.00 | 49 | 1015.0 |
| 20260906145009 | 82 | 347 | 0.0 | 1.0 | 0.00 | 0.00 | 0.00 | 50 | 1015.0 |
| 20260906144535 | 82 | 347 | 0.0 | 1.0 | 0.00 | 0.00 | 0.00 | 50 | 1015.0 |
| 20260906144011 | 81 | 15 | 0.0 | 0.0 | 0.00 | 0.00 | 0.00 | 53 | 1015.0 |
| 20260906143508 | 80 | 16 | 0.0 | 0.0 | 0.00 | 0.00 | 0.00 | 54 | 1015.0 |
| 20260906143035 | 80 | 13 | 0.0 | 0.0 | 0.00 | 0.00 | 0.00 | 56 | 1015.0 |
| 20260906142511 | 79 | 10 | 0.0 | 0.0 | 0.00 | 0.00 | 0.00 | 58 | 1014.9 |
| 20260906142019 | 79 | 360 | 0.0 | 0.0 | 0.00 | 0.00 | 0.00 | 59 | 1014.9 |
| 20260906141509 | 78 | 360 | 0.0 | 1.0 | 0.00 | 0.00 | 0.00 | 59 | 1014.7 |
| 20260906141013 | 78 | 360 | 0.0 | 1.0 | 0.00 | 0.00 | 0.00 | 58 | 1014.7 |
| 20260906140516 | 78 | 360 | 0.0 | 1.0 | 0.00 | 0.00 | 0.00 | 58 | 1014.6 |
| 20260906140033 | 78 | 360 | 0.0 | 1.0 | 0.00 | 0.00 | 0.00 | 58 | 1014.5 |
| 20260906135515 | 78 | 360 | 0.0 | 0.0 | 0.00 | 0.00 | 0.00 | 58 | 1014.5 |
| 20260906135022 | 78 | 360 | 0.0 | 0.0 | 0.00 | 0.00 | 0.00 | 58 | 1014.5 |
| 20260906134509 | 78 | 10 | 0.0 | 0.0 | 0.00 | 0.00 | 0.00 | 57 | 1014.5 |
| 20260906134012 | 78 | 10 | 0.0 | 1.0 | 0.00 | 0.00 | 0.00 | 57 | 1014.3 |
| 20260906133509 | 78 | 10 | 0.0 | 1.0 | 0.00 | 0.00 | 0.00 | 56 | 1014.3 |
| 20260906133007 | 78 | 10 | 0.0 | 1.0 | 0.00 | 0.00 | 0.00 | 56 | 1014.3 |
| 20260906132513 | 78 | 10 | 0.0 | 1.0 | 0.00 | 0.00 | 0.00 | 56 | 1014.3 |
| 20260906132010 | 78 | 10 | 0.0 | 0.0 | 0.00 | 0.00 | 0.00 | 54 | 1014.3 |
| 20260906131515 | 78 | 10 | 0.0 | 0.0 | 0.00 | 0.00 | 0.00 | 54 | 1014.2 |
| 20260906131013 | 78 | 10 | 0.0 | 1.0 | 0.00 | 0.00 | 0.00 | 54 | 1014.2 |
| 20260906130508 | 78 | 10 | 0.0 | 2.0 | 0.00 | 0.00 | 0.00 | 54 | 1014.2 |
| 20260906130010 | 78 | 10 | 0.0 | 2.0 | 0.00 | 0.00 | 0.00 | 55 | 1014.2 |
| 20260906125514 | 78 | 10 | 0.0 | 1.0 | 0.00 | 0.00 | 0.00 | 55 | 1014.2 |
| 20260906125008 | 78 | 11 | 0.0 | 1.0 | 0.00 | 0.00 | 0.00 | 56 | 1014.2 |
| 20260906124509 | 78 | 360 | 0.0 | 1.0 | 0.00 | 0.00 | 0.00 | 56 | 1014.1 |
| 20260906124014 | 78 | 360 | 0.0 | 1.0 | 0.00 | 0.00 | 0.00 | 56 | 1014.0 |
| 20260906123508 | 79 | 360 | 0.0 | 1.0 | 0.00 | 0.00 | 0.00 | 55 | 1014.0 |
| 20260906123010 | 79 | 360 | 0.0 | 2.0 | 0.00 | 0.00 | 0.00 | 54 | 1014.1 |
| 20260906122513 | 79 | 360 | 0.0 | 2.0 | 0.00 | 0.00 | 0.00 | 53 | 1014.0 |
| 20260906122009 | 80 | 360 | 0.0 | 2.0 | 0.00 | 0.00 | 0.00 | 52 | 1014.0 |
| 20260906121511 | 80 | 360 | 0.0 | 2.0 | 0.00 | 0.00 | 0.00 | 51 | 1014.0 |
| 20260906121015 | 80 | 360 | 0.0 | 3.0 | 0.00 | 0.00 | 0.00 | 51 | 1013.8 |
| 20260906120507 | 80 | 360 | 0.0 | 3.0 | 0.00 | 0.00 | 0.00 | 51 | 1013.8 |
| 20260906120034 | 80 | 360 | 0.0 | 3.0 | 0.00 | 0.00 | 0.00 | 52 | 1013.8 |
| 20260906115515 | 80 | 360 | 0.0 | 3.0 | 0.00 | 0.00 | 0.00 | 52 | 1013.8 |
| 20260906115011 | 80 | 360 | 0.0 | 3.0 | 0.00 | 0.00 | 0.00 | 52 | 1013.8 |
| 20260906114510 | 80 | 360 | 0.0 | 3.0 | 0.00 | 0.00 | 0.00 | 51 | 1013.8 |
| 20260906114018 | 80 | 360 | 0.0 | 2.0 | 0.00 | 0.00 | 0.00 | 50 | 1013.7 |
| 20260906113509 | 80 | 360 | 0.0 | 4.0 | 0.00 | 0.00 | 0.00 | 50 | 1013.7 |
| 20260906113010 | 80 | 360 | 0.0 | 4.0 | 0.00 | 0.00 | 0.00 | 50 | 1013.6 |
| 20260906112515 | 80 | 360 | 0.0 | 4.0 | 0.00 | 0.00 | 0.00 | 49 | 1013.6 |
| 20260906112008 | 80 | 360 | 1.0 | 4.0 | 0.00 | 0.00 | 0.00 | 49 | 1013.6 |
| 20260906111511 | 80 | 360 | 0.0 | 2.0 | 0.00 | 0.00 | 0.00 | 49 | 1013.5 |
| 20260906111012 | 80 | 360 | 0.0 | 5.0 | 0.00 | 0.00 | 0.00 | 49 | 1013.5 |
| 20260906110514 | 80 | 360 | 1.0 | 5.0 | 0.00 | 0.00 | 0.00 | 48 | 1013.5 |
| 20260906110009 | 80 | 360 | 1.0 | 5.0 | 0.00 | 0.00 | 0.00 | 48 | 1013.4 |
| 20260906105512 | 80 | 360 | 1.0 | 6.0 | 0.00 | 0.00 | 0.00 | 48 | 1013.4 |
| 20260906105007 | 80 | 360 | 1.0 | 6.0 | 0.00 | 0.00 | 0.00 | 48 | 1013.4 |
| 20260906104517 | 80 | 360 | 2.0 | 6.0 | 0.00 | 0.00 | 0.00 | 48 | 1013.3 |
| 20260906104014 | 80 | 360 | 1.0 | 7.0 | 0.00 | 0.00 | 0.00 | 49 | 1013.3 |
| 20260906103509 | 80 | 360 | 2.0 | 7.0 | 0.00 | 0.00 | 0.00 | 50 | 1013.4 |
| 20260906103010 | 80 | 360 | 1.0 | 6.0 | 0.00 | 0.00 | 0.00 | 51 | 1013.4 |
| 20260906102515 | 81 | 360 | 0.0 | 5.0 | 0.00 | 0.00 | 0.00 | 50 | 1013.4 |
| 20260906102008 | 81 | 360 | 1.0 | 5.0 | 0.00 | 0.00 | 0.00 | 48 | 1013.3 |
| 20260906101508 | 81 | 360 | 0.0 | 5.0 | 0.00 | 0.00 | 0.00 | 48 | 1013.3 |
| 20260906101012 | 81 | 360 | 1.0 | 5.0 | 0.00 | 0.00 | 0.00 | 47 | 1013.3 |
| 20260906100508 | 81 | 360 | 2.0 | 5.0 | 0.00 | 0.00 | 0.00 | 47 | 1013.3 |
| 20260906100011 | 81 | 360 | 2.0 | 6.0 | 0.00 | 0.00 | 0.00 | 47 | 1013.3 |
| 20260906095511 | 80 | 360 | 1.0 | 6.0 | 0.00 | 0.00 | 0.00 | 47 | 1013.2 |
| 20260906095008 | 81 | 360 | 1.0 | 5.0 | 0.00 | 0.00 | 0.00 | 48 | 1013.2 |
| 20260906094538 | 81 | 360 | 0.0 | 5.0 | 0.00 | 0.00 | 0.00 | 47 | 1013.2 |
| 20260906094016 | 81 | 360 | 1.0 | 4.0 | 0.00 | 0.00 | 0.00 | 46 | 1013.2 |
| 20260906093511 | 82 | 360 | 1.0 | 3.0 | 0.00 | 0.00 | 0.00 | 45 | 1013.2 |
| 20260906093038 | 82 | 360 | 0.0 | 3.0 | 0.00 | 0.00 | 0.00 | 44 | 1013.1 |
| 20260906092512 | 82 | 360 | 0.0 | 2.0 | 0.00 | 0.00 | 0.00 | 44 | 1013.1 |
| 20260906092012 | 82 | 360 | 0.0 | 3.0 | 0.00 | 0.00 | 0.00 | 45 | 1013.1 |
| 20260906091529 | 82 | 360 | 0.0 | 5.0 | 0.00 | 0.00 | 0.00 | 46 | 1013.1 |
| 20260906091012 | 82 | 360 | 0.0 | 5.0 | 0.00 | 0.00 | 0.00 | 47 | 1013.2 |
| 20260906090508 | 82 | 360 | 0.0 | 4.0 | 0.00 | 0.00 | 0.00 | 47 | 1013.2 |
| 20260906090031 | 81 | 360 | 0.0 | 3.0 | 0.00 | 0.00 | 0.00 | 48 | 1013.2 |
| 20260906085511 | 81 | 360 | 0.0 | 3.0 | 0.00 | 0.00 | 0.00 | 49 | 1013.3 |
| 20260906085008 | 81 | 360 | 0.0 | 3.0 | 0.00 | 0.00 | 0.00 | 49 | 1013.3 |
| 20260906084545 | 81 | 360 | 0.0 | 3.0 | 0.00 | 0.00 | 0.00 | 50 | 1013.3 |
| 20260906084015 | 81 | 360 | 0.0 | 1.0 | 0.00 | 0.00 | 0.00 | 50 | 1013.3 |
| 20260906083508 | 81 | 360 | 0.0 | 1.0 | 0.00 | 0.00 | 0.00 | 50 | 1013.3 |
| 20260906083036 | 82 | 360 | 0.0 | 1.0 | 0.00 | 0.00 | 0.00 | 49 | 1013.3 |
| 20260906082512 | 82 | 360 | 0.0 | 5.0 | 0.00 | 0.00 | 0.00 | 49 | 1013.3 |
| 20260906082008 | 82 | 360 | 0.0 | 5.0 | 0.00 | 0.00 | 0.00 | 49 | 1013.3 |
| 20260906081531 | 82 | 360 | 0.0 | 4.0 | 0.00 | 0.00 | 0.00 | 48 | 1013.4 |
| 20260906081012 | 82 | 360 | 1.0 | 4.0 | 0.00 | 0.00 | 0.00 | 48 | 1013.4 |
| 20260906080511 | 83 | 360 | 0.0 | 4.0 | 0.00 | 0.00 | 0.00 | 47 | 1013.4 |
| 20260906080035 | 83 | 360 | 1.0 | 4.0 | 0.00 | 0.00 | 0.00 | 47 | 1013.4 |
| 20260906075515 | 83 | 360 | 0.0 | 6.0 | 0.00 | 0.00 | 0.00 | 46 | 1013.5 |
| 20260906075007 | 83 | 360 | 1.0 | 6.0 | 0.00 | 0.00 | 0.00 | 46 | 1013.5 |
| 20260906074533 | 83 | 360 | 1.0 | 6.0 | 0.00 | 0.00 | 0.00 | 46 | 1013.5 |
| 20260906074014 | 84 | 360 | 0.0 | 5.0 | 0.00 | 0.00 | 0.00 | 45 | 1013.5 |
| 20260906073509 | 84 | 360 | 0.0 | 4.0 | 0.00 | 0.00 | 0.00 | 45 | 1013.5 |
| 20260906073039 | 85 | 360 | 0.0 | 2.0 | 0.00 | 0.00 | 0.00 | 42 | 1013.5 |
| 20260906072513 | 85 | 360 | 0.0 | 3.0 | 0.00 | 0.00 | 0.00 | 42 | 1013.5 |
| 20260906072007 | 85 | 360 | 0.0 | 5.0 | 0.00 | 0.00 | 0.00 | 42 | 1013.5 |
| 20260906071508 | 85 | 360 | 1.0 | 5.0 | 0.00 | 0.00 | 0.00 | 41 | 1013.6 |
| 20260906071012 | 85 | 360 | 0.0 | 5.0 | 0.00 | 0.00 | 0.00 | 41 | 1013.6 |
| 20260906070515 | 85 | 360 | 0.0 | 4.0 | 0.00 | 0.00 | 0.00 | 41 | 1013.7 |
| 20260906070010 | 85 | 360 | 0.0 | 2.0 | 0.00 | 0.00 | 0.00 | 41 | 1013.7 |
| 20260906065512 | 85 | 360 | 0.0 | 2.0 | 0.00 | 0.00 | 0.00 | 41 | 1013.6 |
| 20260906065010 | 85 | 360 | 0.0 | 1.0 | 0.00 | 0.00 | 0.00 | 41 | 1013.6 |
| 20260906064518 | 85 | 360 | 0.0 | 2.0 | 0.00 | 0.00 | 0.00 | 42 | 1013.6 |
| 20260906064013 | 85 | 360 | 0.0 | 3.0 | 0.00 | 0.00 | 0.00 | 42 | 1013.6 |
| 20260906063508 | 85 | 360 | 1.0 | 3.0 | 0.00 | 0.00 | 0.00 | 41 | 1013.7 |
| 20260906063012 | 86 | 360 | 0.0 | 1.0 | 0.00 | 0.00 | 0.00 | 41 | 1013.6 |
| 20260906062513 | 86 | 360 | 0.0 | 1.0 | 0.00 | 0.00 | 0.00 | 41 | 1013.7 |
| 20260906062008 | 87 | 360 | 0.0 | 1.0 | 0.00 | 0.00 | 0.00 | 40 | 1013.6 |
| 20260906061513 | 87 | 9 | 0.0 | 4.0 | 0.00 | 0.00 | 0.00 | 40 | 1013.7 |
| 20260906061018 | 87 | 9 | 0.0 | 7.0 | 0.00 | 0.00 | 0.00 | 39 | 1013.7 |
| 20260906060509 | 87 | 9 | 1.0 | 7.0 | 0.00 | 0.00 | 0.00 | 39 | 1013.7 |
| 20260906060011 | 87 | 9 | 2.0 | 6.0 | 0.00 | 0.00 | 0.00 | 39 | 1013.6 |
| 20260906055514 | 87 | 8 | 1.0 | 6.0 | 0.00 | 0.00 | 0.00 | 40 | 1013.7 |
| 20260906055007 | 87 | 8 | 2.0 | 6.0 | 0.00 | 0.00 | 0.00 | 40 | 1013.8 |
| 20260906054514 | 87 | 8 | 1.0 | 5.0 | 0.00 | 0.00 | 0.00 | 40 | 1013.8 |
| 20260906054012 | 87 | 8 | 2.0 | 5.0 | 0.00 | 0.00 | 0.00 | 41 | 1013.8 |
| 20260906053509 | 87 | 8 | 0.0 | 6.0 | 0.00 | 0.00 | 0.00 | 40 | 1013.8 |
| 20260906053010 | 87 | 8 | 0.0 | 6.0 | 0.00 | 0.00 | 0.00 | 40 | 1013.9 |
| 20260906052514 | 87 | 8 | 1.0 | 7.0 | 0.00 | 0.00 | 0.00 | 40 | 1014.0 |
| 20260906052010 | 87 | 8 | 2.0 | 7.0 | 0.00 | 0.00 | 0.00 | 41 | 1013.9 |
| 20260906051508 | 87 | 8 | 1.0 | 5.0 | 0.00 | 0.00 | 0.00 | 41 | 1013.9 |
| 20260906051013 | 87 | 8 | 0.0 | 6.0 | 0.00 | 0.00 | 0.00 | 41 | 1014.0 |
| 20260906050508 | 87 | 8 | 0.0 | 6.0 | 0.00 | 0.00 | 0.00 | 41 | 1014.0 |
| 20260906050009 | 87 | 8 | 1.0 | 6.0 | 0.00 | 0.00 | 0.00 | 41 | 1014.0 |
| 20260906045513 | 88 | 8 | 1.0 | 6.0 | 0.00 | 0.00 | 0.00 | 41 | 1014.0 |
| 20260906045008 | 88 | 8 | 0.0 | 3.0 | 0.00 | 0.00 | 0.00 | 40 | 1014.0 |
| 20260906044514 | 88 | 8 | 0.0 | 3.0 | 0.00 | 0.00 | 0.00 | 40 | 1014.0 |
| 20260906044013 | 88 | 8 | 1.0 | 5.0 | 0.00 | 0.00 | 0.00 | 39 | 1013.9 |
| 20260906043507 | 89 | 8 | 1.0 | 5.0 | 0.00 | 0.00 | 0.00 | 39 | 1013.9 |
| 20260906043033 | 89 | 8 | 0.0 | 3.0 | 0.00 | 0.00 | 0.00 | 39 | 1013.9 |
| 20260906042512 | 89 | 8 | 0.0 | 3.0 | 0.00 | 0.00 | 0.00 | 38 | 1013.9 |
| 20260906042008 | 89 | 8 | 0.0 | 5.0 | 0.00 | 0.00 | 0.00 | 38 | 1013.9 |
| 20260906041531 | 89 | 9 | 1.0 | 5.0 | 0.00 | 0.00 | 0.00 | 38 | 1013.9 |
| 20260906041016 | 89 | 8 | 2.0 | 5.0 | 0.00 | 0.00 | 0.00 | 38 | 1013.9 |
| 20260906040508 | 89 | 9 | 1.0 | 5.0 | 0.00 | 0.00 | 0.00 | 38 | 1013.9 |
| 20260906040037 | 90 | 8 | 2.0 | 5.0 | 0.00 | 0.00 | 0.00 | 38 | 1013.9 |
| 20260906035511 | 90 | 8 | 1.0 | 5.0 | 0.00 | 0.00 | 0.00 | 38 | 1013.9 |
| 20260906035007 | 90 | 9 | 1.0 | 6.0 | 0.00 | 0.00 | 0.00 | 38 | 1013.8 |
| 20260906034542 | 90 | 8 | 1.0 | 8.0 | 0.00 | 0.00 | 0.00 | 38 | 1013.8 |
| 20260906034013 | 90 | 9 | 1.0 | 8.0 | 0.00 | 0.00 | 0.00 | 38 | 1013.8 |
| 20260906033508 | 90 | 9 | 2.0 | 7.0 | 0.00 | 0.00 | 0.00 | 38 | 1013.7 |
| 20260906033032 | 90 | 9 | 2.0 | 10.0 | 0.00 | 0.00 | 0.00 | 38 | 1013.5 |
| 20260906032512 | 90 | 8 | 4.0 | 10.0 | 0.00 | 0.00 | 0.00 | 38 | 1013.6 |
| 20260906032008 | 90 | 8 | 1.0 | 7.0 | 0.00 | 0.00 | 0.00 | 38 | 1013.5 |
| 20260906031534 | 90 | 8 | 3.0 | 7.0 | 0.00 | 0.00 | 0.00 | 38 | 1013.4 |
| 20260906031012 | 90 | 10 | 2.0 | 6.0 | 0.00 | 0.00 | 0.00 | 38 | 1013.4 |
| 20260906030510 | 90 | 9 | 1.0 | 5.0 | 0.00 | 0.00 | 0.00 | 38 | 1013.3 |
| 20260906030032 | 90 | 9 | 2.0 | 5.0 | 0.00 | 0.00 | 0.00 | 38 | 1013.3 |
| 20260906025514 | 90 | 8 | 0.0 | 5.0 | 0.00 | 0.00 | 0.00 | 38 | 1013.3 |
| 20260906025010 | 90 | 8 | 1.0 | 5.0 | 0.00 | 0.00 | 0.00 | 38 | 1013.2 |
| 20260906024534 | 90 | 8 | 1.0 | 5.0 | 0.00 | 0.00 | 0.00 | 38 | 1013.1 |
| 20260906024013 | 90 | 8 | 1.0 | 5.0 | 0.00 | 0.00 | 0.00 | 37 | 1013.0 |
| 20260906023510 | 91 | 8 | 1.0 | 4.0 | 0.00 | 0.00 | 0.00 | 37 | 1013.0 |
| 20260906023030 | 91 | 8 | 1.0 | 5.0 | 0.00 | 0.00 | 0.00 | 36 | 1012.9 |
| 20260906022512 | 91 | 8 | 1.0 | 5.0 | 0.00 | 0.00 | 0.00 | 36 | 1012.8 |
| 20260906022014 | 91 | 8 | 1.0 | 6.0 | 0.00 | 0.00 | 0.00 | 36 | 1012.8 |
| 20260906021532 | 91 | 8 | 1.0 | 6.0 | 0.00 | 0.00 | 0.00 | 35 | 1012.7 |
| 20260906021014 | 92 | 8 | 2.0 | 5.0 | 0.00 | 0.00 | 0.00 | 35 | 1012.8 |
| 20260906020510 | 92 | 8 | 1.0 | 7.0 | 0.00 | 0.00 | 0.00 | 35 | 1012.8 |
| 20260906020038 | 92 | 8 | 2.0 | 7.0 | 0.00 | 0.00 | 0.00 | 35 | 1012.9 |
| 20260906015512 | 92 | 8 | 2.0 | 6.0 | 0.00 | 0.00 | 0.00 | 34 | 1012.9 |
| 20260906015008 | 92 | 9 | 3.0 | 7.0 | 0.00 | 0.00 | 0.00 | 34 | 1012.9 |
| 20260906014543 | 92 | 8 | 2.0 | 7.0 | 0.00 | 0.00 | 0.00 | 34 | 1012.8 |
| 20260906014018 | 93 | 296 | 3.0 | 7.0 | 0.00 | 0.00 | 0.00 | 34 | 1012.8 |
| 20260906013511 | 93 | 266 | 2.0 | 8.0 | 0.00 | 0.00 | 0.00 | 34 | 1012.9 |
| 20260906013033 | 93 | 297 | 4.0 | 10.0 | 0.00 | 0.00 | 0.00 | 34 | 1012.8 |
| 20260906012511 | 93 | 269 | 2.0 | 10.0 | 0.00 | 0.00 | 0.00 | 34 | 1012.8 |
| 20260906012007 | 94 | 285 | 3.0 | 11.0 | 0.00 | 0.00 | 0.00 | 34 | 1012.8 |
| 20260906011538 | 94 | 280 | 3.0 | 11.0 | 0.00 | 0.00 | 0.00 | 34 | 1012.8 |
| 20260906011011 | 94 | 309 | 4.0 | 10.0 | 0.00 | 0.00 | 0.00 | 33 | 1012.8 |
| 20260906010509 | 94 | 269 | 3.0 | 9.0 | 0.00 | 0.00 | 0.00 | 33 | 1012.8 |
| 20260906010035 | 94 | 257 | 3.0 | 11.0 | 0.00 | 0.00 | 0.00 | 33 | 1012.9 |
| 20260906005513 | 94 | 243 | 5.0 | 11.0 | 0.00 | 0.00 | 0.00 | 33 | 1012.8 |
| 20260906005010 | 95 | 311 | 4.0 | 10.0 | 0.00 | 0.00 | 0.00 | 33 | 1012.7 |
| 20260906004538 | 95 | 281 | 4.0 | 10.0 | 0.00 | 0.00 | 0.00 | 33 | 1012.8 |
| 20260906004015 | 95 | 255 | 4.0 | 12.0 | 0.00 | 0.00 | 0.00 | 33 | 1012.8 |
| 20260906003508 | 95 | 283 | 6.0 | 12.0 | 0.00 | 0.00 | 0.00 | 33 | 1012.8 |
| 20260906003046 | 96 | 292 | 3.0 | 12.0 | 0.00 | 0.00 | 0.00 | 32 | 1012.8 |
| 20260906002512 | 96 | 239 | 3.0 | 12.0 | 0.00 | 0.00 | 0.00 | 33 | 1012.7 |
| 20260906002010 | 96 | 269 | 5.0 | 11.0 | 0.00 | 0.00 | 0.00 | 32 | 1012.8 |
| 20260906001531 | 96 | 295 | 6.0 | 10.0 | 0.00 | 0.00 | 0.00 | 32 | 1012.7 |
| 20260906001011 | 96 | 235 | 4.0 | 10.0 | 0.00 | 0.00 | 0.00 | 32 | 1012.7 |
| 20260906000511 | 96 | 269 | 6.0 | 10.0 | 0.00 | 0.00 | 0.00 | 32 | 1012.6 |
| 20260906000033 | 97 | 245 | 3.0 | 12.0 | 0.00 | 0.00 | 0.00 | 32 | 1012.6 |
| 20260905235512 | 96 | 280 | 5.0 | 12.0 | 0.00 | 0.00 | 0.00 | 32 | 1012.6 |
| 20260905235009 | 96 | 269 | 5.0 | 10.0 | 0.00 | 0.00 | 0.00 | 32 | 1012.6 |